Погода в Мурманске

Погода в Мурманске : погода сейчас, прогноз погоды и архив. Всё, что Вы хотите узнать о погоде в Мурманске!

Поиск расширенной информации на нашем сайте:

Другие новости

Новости СМИ2

Главная страница сайта

Новости сайта

03.07.2017

Напоминаем, что на нашем специализированном сайте Метеоцентр.Азия вы можете получить высокодетализированные автоматические прогнозы погоды по пунктам России, СНГ и мира в авиационном формате (включающие направление и скорость ветра, видимость, явления погоды, количество и форму облачности, нижнюю и верхнюю границу облачности).


Погода в Мурманске - сегодня

Время (UTC), дата Ветер
(°,м/с) 
Видим.   Явления Облачность Т
(°С)
Тd
(°С)
f(%) Тe
(°С)
Pmin
(гПа)
dP
(гПа)
Po
(мм)
O2
(г/м3)
Тmin Tmax R s Состояние
почвы
21 15.09.17 040 (СВ) 6-8  10 км  слаб. ливневой дождь  10/10 200 м кучево-дожд. 
[Cb cap]
+5.5 +4.6 94 +3  998.3  1.1  744  293           
03 16.09.17 030 (СВ) 5-7{11}  10 км  слаб. ливневой дождь  10/10 300 м кучево-дожд. 
[Cb cap]
+4.9 +3.3 89 +3  1002  747  295  +4.9       
21 16.09.17 330 (СЗ) 3-4  20000 м    9/8 600 м кучево-дожд., средняя 
[Cb cap|Ac trans]
+5.1 +3.4 89 +4  1011.4  0.6  754  298           
09 17.09.17 260 (З) 4-6  20000 м    10/3 300 м средняя 
[Sc|Ac As]
+6.9 +2.5 74 +6  1012.4  -0.1  755  296           
21 17.09.17 210 (ЮЗ) 3-3  20000 м    3/0 верхняя 
[Ci fib]
+2.3 +1.2 92 +1  1011.9  0.3  754  301           
09 18.09.17 020 (С) 4-6  20000 м    9/9 600 м кучево-дожд. 
[Cb cap]
+6.7 +2.9 77 +5  1016.5  1.6  758  298           
18 18.09.17 030 (СВ) 3-6  20000 м  в посл. час ливневой дождь  9/6 300 м кучево-дожд., средняя 
[Cb cap|Ac As]
+5.8 +4.6 92 +5  1019.6  760  299    +7.6  0.3     
21 18.09.17 020 (С) 3-5  20000 м  в посл. час ливневой дождь  9/9 300 м кучево-дожд. 
[Cb cap]
+5 +3.4 89 +4  1020.7  761  301           
00 19.09.17 030 (СВ) 3-5  20000 м  {ливн. осадки}  9/9 300 м кучево-дожд. 
[Cb cap]
+5.2 +3.5 89 +4  1021.1  0.4  761  300           
03 19.09.17 020 (С) 3-6  20000 м  слаб. ливневой дождь  9/8 300 м кучево-дожд., средняя 
[Cb cap|Ac As]
+5 +3.2 88 +4  1021.6  0.5  761  301  +4.5    0.6     
06 19.09.17 010 (С) 3-4  20000 м  {ливн. осадки}  9/9 300 м кучево-дожд. 
[Cb cap]
+5.2 +2.7 84 +4  1022.7  1.1  762  301  +4.5    0.3    влажная 
09 19.09.17 080 (В) 4-7  20000 м  в посл. час ливневой дождь  10/10 300 м кучево-дожд. 
[Cb cap]
+6.4 +2.8 78 +5  1023.7  763  300           
12 19.09.17 090 (В) 5-9{10}  20000 м  {ливн. осадки}  9/9 600 м кучево-дожд. 
[Cb cap]
+7.2 +0.8 64 +5  1023.9  0.3  763  300           
15 19.09.17 090 (В) 5-8{11}  20000 м    9/9 600 м кучево-дожд. 
[Cb cap]
+6.3 +0.2 65 +4  1025  764  301      0.0     
18 19.09.17 060 (СВ) 2-5{10}  20000 м    10/10 600 м 
[Sc]
+5.3 +0.1 69 +5  1026.5  1.4  765  302    +7.2  0.0     
21 19.09.17 050 (СВ) 2-3  20000 м    10/10 600 м 
[Sc]
+5.2 +0.6 72 +5  1027.3  0.9  766  303           
00 20.09.17 060 (СВ) 2-3  20000 м  слаб. ливневой дождь  10/9 600 м кучево-дожд., средняя 
[Cb cap|Ac und]
+4.5 +1.8 83 +4  1028.2  0.9  766  304           
03 20.09.17 080 (В) 1-2  20000 м  {ливн. осадки}  10/9 600 м средняя 
[Sc|Ac und]
+4.3 +1.3 81 +5  1029.2  767  304  +4    0.0     
06 20.09.17 тихо ()   10 км  в посл. час ливневой дождь  10/8 600 м кучево-дожд., средняя 
[Cb cap|Ac und]
+4.7 +2.1 83 +5  1030.8  1.5  768  304  +4    0.0    влажная 
09 20.09.17 110 (В) 2-3  10 км  слаб. ливневой дождь  9/9 600 м кучево-дожд. 
[Cb cap]
+5.6 +2 78 +5  1032  1.3  769  303           
12 20.09.17 110 (В) 2-5  20000 м  {ливн. осадки}  9/6 600 м кучево-дожд., средняя 
[Cb cap|Ac trans]
+6.1 -0 65 +6  1032.8  0.7  770  303           
15 20.09.17 090 (В) 3-5  20000 м    9/6 600 м кучево-дожд., средняя 
[Cb cap|Ac trans]
+6.7 +0 62 +6  1033.3  0.5  770  303      0.0     
18 20.09.17 150 (ЮВ) 4-6  20000 м    10/8 600 м средняя 
[Sc|Ac und]
+5.4 -0.3 67 +4  1034.7  1.4  771  305    +6.8  0.0     
21 20.09.17 140 (ЮВ) 3-4  20000 м    9/9 600 м 
[Sc]
+4.3 -0.3 72 +3  1035.6  0.9  772  306           
00 21.09.17 170 (Ю) 1-1  20000 м    10/10 600 м 
[Sc]
+3.8 +0.5 79 +5  1036.2  0.7  772  307           
Время (UTC), дата Ветер
(°,м/с) 
Видим.   Явления Облачность Т
(°С)
Тd
(°С)
f(%) Тe
(°С)
Pmin
(гПа)
dP
(гПа)
Po
(мм)
O2
(г/м3)
Тmin Tmax R s Состояние
почвы

Для получения пояснительной информации подведите курсор к названию столбца.

ПОГОДА в Мурманске - архив

Всё, что Вы хотите узнать о погоде в Мурманске - удобно и подробно!

Выберите нужную дату (начиная с 1 января 2015* года) и нажмите кнопку "Найти".
Будут отображены архивные сводки погоды по пункту Мурманск, начиная с указанной даты.


Отображать данные в формате CSV (для использования в таблицах Excel)


Внимание! Наш архив погоды предназначен исключительно для личного некоммерческого использования в познавательных целях. Если Вам необходимы официальные справки о состоянии погоды (для производственных, юридических, коммерческих и т.п. целей), обращайтесь в органы Росгидромета.

*Примечание: данная дата относится к архиву по метеостанциям СССР (Россия, СНГ, Балтия).
Архив по метеостанциям Зарубежной Европы и Азии (кроме Китая) хранится 10 дней, по другим регионам земного шара (Китай, Африка, Америка, Австралия, Океания) - 1 день.

Мурманск - район местоположения метеостанции


Название, широта, долгота, высота метеостанции:
Мурманск (город) 69°ш. 33.1°д. 51 м над ур. моря [Российская Федерация]

Дополнительная информация

В oтличие oт бoльшинства пoгoдных сайтoв мы публикуем пoдрoбную метеoинфoрмацию в детальнoм прoфессиoнальнoм фoрмате.

Характеристики температуры и влажнoсти вoздуха измеряются на высoте 2 м в тени вдали oт зданий и деревьев.
Скoрoсть ветра измеряется на высoте 10 м (на урoвне рoста челoвека скoрoсть ветра ниже в 1.5-2 раза). Если метеoстанция нахoдится в гoрoде или в лесу, тo скoрoсть ветра занижена на 2-4 м/с пo сравнению с oткрытым местoм. Скoрoсть ветра над акватoриями крупных рек и oзёр, а также на вершинах хoлмoв на 2-5 м/с выше, чем в oбычных услoвиях.
Атмoсфернoе давление в разных тoчках местнoсти мoжет значительнo oтличаться oт давления на метеoстанции, в зависимoсти oт услoвий рельефа (при пoдъёме на 10 м давление пoнижается примернo на 1 мм рт.ст.).